Regional Weather Roundup
Issued by NWS

Home | Current Version | Previous Version | Text Only | Print | Product List | Glossary Off
Versions: 1 2 3 4 5 6 7 8 9 10 11 12 13 14 15 16 17 18 19 20 21 22 23 24 25 26 27 28 29 30 31 32 33 34 35 36 37 38 39 40 41 42 43 44 45 46 47 48 49 50

000
ASUS43 KMPX 011501
RWRMN
WEATHER ROUNDUP FOR MINNESOTA
NATIONAL WEATHER SERVICE TWIN CITIES/CHANHASSEN MN
1000 AM CDT WED APR 01 2015


NOTE: "FAIR" INDICATES FEW OR NO CLOUDS BELOW 12,000 FEET WITH NO
SIGNIFICANT WEATHER AND/OR OBSTRUCTIONS TO VISIBILITY. N/A MEANS
CURRENT SKY AND/OR WEATHER CONDITIONS ARE NOT AVAILABLE.

MNZ060>063-068>070-011600-
   Twin Cities Metro

CITY           SKY/WX    TMP DP  RH WIND       PRES   REMARKS
TWIN CITIES    MOSUNNY   58  35  42 SE12      29.72F
ST PAUL        MOSUNNY   55  35  47 SE13      29.74F
CRYSTAL        MOSUNNY   56  34  43 SE14      29.69F
BLAINE         PTSUNNY   57  36  44 SE9G20    29.71F
LAKEVILLE      SUNNY     57  37  47 S14       29.72F
EDEN PRAIRIE   MOSUNNY   62  34  35 S17       29.70F
SOUTH ST PAUL  MOSUNNY   55  35  47 SE8       29.74F
LAKE ELMO      FAIR      55  36  47 S14       29.75F
$$
MNZ001>005-007-008-013>017-022>024-027-028-011600-
   Northwest Minnesota

CITY           SKY/WX    TMP DP  RH WIND       PRES   REMARKS
BEMIDJI        MOSUNNY   47  31  53 SE17      29.54F
HALLOCK        SUNNY     52  36  54 SE20      29.39F
ROSEAU         PTSUNNY   48  34  57 SE14      29.48F
WARROAD        CLOUDY    45  34  65 SE12G18   29.51F
THIEF RVR FALL MOSUNNY   52  36  54 SE16      29.44F
CROOKSTON      MOSUNNY   57  36  44 S20G29    29.42F
FOSSTON        MOSUNNY   54  36  50 SE14G20   29.46F
DETROIT LAKES  PTSUNNY   50  34  53 SE16      29.49F
MOORHEAD       MOSUNNY   59  36  41 SE20G26   29.42F
PARK RAPIDS    MOSUNNY   52  30  43 SE14      29.54F
MAHNOMEN       FAIR      55  33  43 S17G26    29.46F
$$
MNZ006-009>011-018-025>026-011600-
   North Central Minnesota

CITY           SKY/WX    TMP DP  RH WIND       PRES   REMARKS
BAUDETTE       PTSUNNY   46  32  58 SE23G31   29.53F
FLAG ISLAND    CLOUDY    39  30  70 SE12G20   29.53F
INTL FALLS     SUNNY     46  31  55 SE16G24   29.62F
WASKISH        PTSUNNY   48  34  57 SE15G22   29.54F
BIG FORK       SUNNY     46  30  53 SE12G18   29.61F
LONGVILLE      MOSUNNY   46  32  57 SE14G20   29.60F
GRAND RAPIDS   MOSUNNY   43  30  61 SE18G26   29.64F
ORR            MOSUNNY   45  27  49 SE17      29.63F
COOK           MOSUNNY   45  30  57 SE13G20   29.68F
WALKER         FAIR      45  30  55 SE7       29.58F
$$
MNZ012-019>021-037-011600-
   Northeast Minnesota

CITY           SKY/WX    TMP DP  RH WIND       PRES   REMARKS
DULUTH         PTSUNNY   33  30  88 E18       29.75F WCI  22
ELY            PTSUNNY   41  28  60 SE16G23   29.74F
EVELETH        MOSUNNY   43  30  61 SE17      29.72F
DULUTH HARBOR  CLOUDY    34  32  93 NE21      29.82F WCI  22
TWO HARBORS    CLOUDY    36  30  80 E17       29.80F
SILVER BAY     FOG       30  30 100 NE13G18   29.83F VSB<1/4 WCI  20
GRAND MARAIS     N/A     31  29  92 E15G22    29.92F WCI  20
G MARAIS ARPRT FOG       27  23  86 E8        29.86F VSB<1/4 WCI  18
$$
MNZ029>031-032-039>041-046>048-054>057-064-011600-
   West Central Minnesota

CITY           SKY/WX    TMP DP  RH WIND       PRES   REMARKS
FERGUS FALLS   MOSUNNY   61  30  31 S18G26    29.48F
WHEATON        CLOUDY    57  37  47 S17G23    29.45F
MORRIS         CLOUDY    63  39  42 S22G30    29.48F
ALEXANDRIA     MOSUNNY   60  34  37 S24G30    29.53F
ELBOW LAKE     FAIR      59  37  43 S26       29.47F
WADENA         MOSUNNY   54  36  50 SE12      29.53F
GLENWOOD       MOSUNNY   59  37  44 S18G25    29.55F
APPLETON       CLOUDY    64  36  34 S9G16     29.52F
BENSON         PTSUNNY   63  36  36 SW21G28   29.53F
ORTONVILLE     CLOUDY    63  37  39 S16G24    29.46F
MADISON        CLOUDY    66  36  32 SW36G45   29.48S
WILLMAR        FAIR      66  32  28 S13G25    29.59F
$$
MNZ033>034-036-042>043-049>051-058-059-011600-
   Central Minnesota

CITY           SKY/WX    TMP DP  RH WIND       PRES   REMARKS
ST CLOUD       MOSUNNY   59  34  39 S18G24    29.64F
SAUK CENTRE    FAIR      57  36  44 S17G23    29.57F
PAYNESVILLE    SUNNY     56  33  41 SE16G26   29.59F
AITKIN         PTSUNNY   54  34  47 SE12G20   29.63F
PINE RIVER     MOSUNNY   48  34  57 SE13      29.63F
BRAINERD       PTSUNNY   51  31  46 SE14      29.62F
STAPLES        MOSUNNY   52  30  43 SE12G20   29.56F
LONG PRAIRIE   FAIR      54  34  47 SE15G25   29.57F
LITTLE FALLS   MOSUNNY   54  32  43 SE15      29.60F
LITCHFIELD     SUNNY     61  36  39 S5        29.62F
MAPLE LAKE     MOSUNNY   60  37  43 S13G25    29.67F
$$
MNZ037-044-045-052-053-011600-
   East Central Minnesota

CITY           SKY/WX    TMP DP  RH WIND       PRES   REMARKS
PRINCETON      PTSUNNY   57  34  41 SE10      29.68F
MORA           CLOUDY    50  32  50 SE9       29.71F
CAMBRIDGE      PTSUNNY   55  37  50 SE9G16    29.68F
RUSH CITY      PTSUNNY   51  32  48 S16G22    29.73F
MOOSE LAKE     MOSUNNY   50  32  50 SE7       29.71F
HINCKLEY       FAIR      52  34  50 SE9G18    29.72F
CLOQUET        MOSUNNY   37  30  75 SE16G23   29.74F
MCGREGOR       MOSUNNY   46  32  57 SE13G20   29.68F
$$
MNZ071>073-080-081-089-090-097-098-011600-
   Southwest Minnesota

CITY           SKY/WX    TMP DP  RH WIND       PRES   REMARKS
MONTEVIDEO     CLOUDY    64  36  34 SW25G37   29.53F
GRANITE FALLS  CLOUDY    64  34  33 S26G37    29.57F
CANBY          PTSUNNY   66  35  32 S29G41    29.51F
MARSHALL       PTSUNNY   66  36  32 SW39G48   29.56F
REDWOOD FALLS  CLOUDY    64  33  31 S26G41    29.60F
OLIVIA         PTSUNNY   61  34  36 S21G31    29.60F
PIPESTONE      MOSUNNY   64  34  32 SW26G36   29.61F
WINDOM         PTSUNNY   64  30  27 S24G36    29.67S
WORTHINGTON    MOSUNNY   64  32  29 S30G37    29.68F
JACKSON        MOSUNNY   64  30  27 S28G35    29.70F
TRACY          CLOUDY    62  34  35 S23G32    29.61F
SLAYTON        MOSUNNY   63  26  25 S38G46    29.62F
$$
MNZ065>067-074>077-082>085-091>093-011600-
   South Central Minnesota

CITY           SKY/WX    TMP DP  RH WIND       PRES   REMARKS
MANKATO        SUNNY     61  36  39 S20G28    29.71F
NEW ULM        MOSUNNY   66  34  30 S23G30    29.64F
ST JAMES       MOSUNNY   64  30  27 S30G36    29.68F
FAIRMONT       MOSUNNY   63  34  34 S26       29.71F
GLENCOE        SUNNY     61  40  45 S16G26    29.67F
FARIBAULT      SUNNY     57  37  47 S14G21    29.74F
OWATONNA       SUNNY     57  36  44 S16G23    29.75F
ALBERT LEA     SUNNY     59  36  41 S10G20    29.77F
$$
MNZ078>079-086>088-094>096-011600-
   Southeast Minnesota

CITY           SKY/WX    TMP DP  RH WIND       PRES   REMARKS
ROCHESTER      SUNNY     56  40  55 S16       29.82F
RED WING       SUNNY     57  34  41 SE10      29.78F
STANTON        SUNNY     60  38  43 S14G20    29.74F
DODGE CENTER   SUNNY     57  39  51 S20G25    29.78F
WINONA         SUNNY     54  36  50 SE12      29.87F
AUSTIN         SUNNY     57  37  47 S13G21    29.80F
PRESTON        SUNNY     56  36  46 S16       29.85F
$$
ABBREVIATIONS USED IN REMARKS
   TC - TEMPERATURES IN CELSIUS
  WCI - WIND CHILL INDEX
   HX - HEAT INDEX
  VSB - VISIBILITY
$$


USA.gov is the U.S. government's official web portal to all federal, state and local government web resources and services.